Belmar-Farmingdale, NJ

7:46 PM EDT on April 21, 2018 (GMT -0400)
Allaire

Weather History for KBLM - November, 2011

Change the Weather History Date:

Tuesday, November 22, 2011

  Actual Average Record
Temperature  
Mean Temperature 50 °F -  
Max Temperature 51 °F 50 °F 71 °F (2007)
Min Temperature 48 °F 36 °F 21 °F (2014)
Degree Days  
Heating Degree Days 16    
Moisture  
Dew Point 46 °F    
Average Humidity 87    
Maximum Humidity 94    
Minimum Humidity 71    
Precipitation  
Precipitation 0.61 in - - ()
Sea Level Pressure  
Sea Level Pressure 30.25 in    
Wind  
Wind Speed 8 mph (ESE)    
Max Wind Speed 18 mph    
Max Gust Speed 25 mph    
Visibility 8 miles    
Events      
Averages and records for this station are not official NWS values.
T = Trace of Precipitation, MM = Missing Value Source: NWS Daily Summary

Daily Weather History Graph

Daily Weather History Graph

Search for Another Location

Airport or City:

Astronomy

Nov. 22, 2011 Rise Set
Actual Time 6:49 AM EST 4:35 PM EST
Civil Twilight 6:20 AM EST 5:04 PM EST
Nautical Twilight 5:46 AM EST 5:37 PM EST
Astronomical Twilight 5:14 AM EST 6:10 PM EST
Moon 3:37 AM EST (11/22) 2:32 PM EST (11/22)
Length of Visible Light 10h 44m
Length of Day
9h 45m
Waning Crescent, 9% of the Moon is Illuminated
Nov 22
Waning Crescent
Nov 25
New
Dec 2
First Quarter
Dec 10
Full
Dec 17
Last Quarter

Hourly Weather History & Observations

Time (EST) Temp. Dew Point Humidity Pressure Visibility Wind Dir Wind Speed Gust Speed Precip Events Conditions
12:35 AM 51.8 °F 48.2 °F 88% 30.28 in 5.0 mi East 5.8 mph - N/A   Overcast
12:55 AM 51.8 °F 48.2 °F 88% 30.28 in 5.0 mi East 5.8 mph - N/A   Overcast
1:15 AM 51.8 °F 48.2 °F 88% 30.27 in 4.0 mi ESE 5.8 mph - N/A   Overcast
1:35 AM 50.0 °F 48.2 °F 94% 30.28 in 5.0 mi ESE 5.8 mph - N/A   Overcast
1:55 AM 50.0 °F 48.2 °F 94% 30.29 in 3.0 mi ESE 5.8 mph - 0.01 in   Overcast
2:15 AM 50.0 °F 48.2 °F 94% 30.29 in 5.0 mi ESE 5.8 mph - N/A   Overcast
2:35 AM 50.0 °F 48.2 °F 94% 30.28 in 8.0 mi ESE 4.6 mph - N/A   Overcast
2:55 AM 50.0 °F 48.2 °F 94% 30.28 in 5.0 mi East 4.6 mph - N/A   Overcast
3:15 AM 50.0 °F 48.2 °F 94% 30.28 in 5.0 mi East 3.5 mph - N/A   Overcast
3:35 AM 50.0 °F 48.2 °F 94% 30.29 in 6.0 mi East 4.6 mph - N/A   Overcast
3:55 AM 50.0 °F 48.2 °F 94% 30.30 in 9.0 mi East 3.5 mph - N/A   Overcast
4:15 AM 50.0 °F 48.2 °F 94% 30.30 in 7.0 mi East 4.6 mph - N/A   Overcast
4:35 AM 50.0 °F 48.2 °F 94% 30.30 in 5.0 mi East 3.5 mph - N/A   Overcast
4:55 AM 50.0 °F 48.2 °F 94% 30.31 in 5.0 mi East 4.6 mph - N/A   Overcast
5:15 AM 50.0 °F 48.2 °F 94% 30.31 in 5.0 mi East 4.6 mph - N/A   Overcast
5:35 AM 50.0 °F 48.2 °F 94% 30.31 in 5.0 mi East 5.8 mph - N/A   Overcast
5:55 AM 50.0 °F 48.2 °F 94% 30.31 in 5.0 mi ESE 5.8 mph - N/A   Overcast
6:15 AM 50.0 °F 48.2 °F 94% 30.31 in 6.0 mi ESE 4.6 mph - N/A   Overcast
6:55 AM 50.0 °F 46.4 °F 87% 30.32 in 7.0 mi ESE 6.9 mph - N/A   Overcast
7:15 AM 50.0 °F 46.4 °F 87% 30.32 in 7.0 mi East 5.8 mph - N/A   Overcast
7:35 AM 50.0 °F 46.4 °F 87% 30.33 in 9.0 mi East 5.8 mph - N/A   Overcast
7:55 AM 50.0 °F 46.4 °F 87% 30.33 in 10.0 mi ESE 9.2 mph - N/A   Overcast
8:15 AM 50.0 °F 46.4 °F 87% 30.34 in 10.0 mi ESE 9.2 mph - N/A   Overcast
8:35 AM 50.0 °F 46.4 °F 87% 30.34 in 10.0 mi East 8.1 mph - N/A   Overcast
8:55 AM 50.0 °F 46.4 °F 87% 30.34 in 7.0 mi ESE 9.2 mph - N/A   Overcast
9:15 AM 50.0 °F 46.4 °F 87% 30.35 in 10.0 mi ESE 8.1 mph - N/A   Overcast
9:35 AM 51.8 °F 46.4 °F 82% 30.35 in 10.0 mi ESE 8.1 mph - N/A   Overcast
9:55 AM 51.8 °F 44.6 °F 76% 30.34 in 10.0 mi ESE 10.4 mph - N/A   Overcast
10:15 AM 51.8 °F 44.6 °F 76% 30.33 in 10.0 mi ESE 10.4 mph - N/A   Overcast
10:35 AM 51.8 °F 44.6 °F 76% 30.32 in 8.0 mi ESE 8.1 mph - N/A   Overcast
10:55 AM 51.8 °F 44.6 °F 76% 30.32 in 10.0 mi ESE 10.4 mph - N/A   Overcast
11:15 AM 51.8 °F 44.6 °F 76% 30.31 in 10.0 mi ESE 12.7 mph - N/A   Overcast
11:35 AM 51.8 °F 44.6 °F 76% 30.31 in 10.0 mi East 11.5 mph - N/A   Overcast
12:35 PM 51.8 °F 44.6 °F 76% 30.28 in 8.0 mi East 12.7 mph 17.3 mph N/A   Overcast
12:55 PM 51.8 °F 44.6 °F 76% 30.27 in 10.0 mi ESE 11.5 mph - N/A   Overcast
1:35 PM 51.8 °F 42.8 °F 71% 30.26 in 10.0 mi East 15.0 mph 20.7 mph N/A   Overcast
1:55 PM 51.8 °F 42.8 °F 71% 30.25 in 10.0 mi East 12.7 mph 20.7 mph N/A   Overcast
2:35 PM 51.8 °F 42.8 °F 71% 30.24 in 10.0 mi ESE 13.8 mph 17.3 mph N/A   Overcast
2:55 PM 51.8 °F 42.8 °F 71% 30.24 in 10.0 mi ESE 11.5 mph 21.9 mph N/A   Overcast
3:15 PM 51.8 °F 42.8 °F 71% 30.24 in 10.0 mi ESE 11.5 mph 16.1 mph N/A   Overcast
3:35 PM 48.2 °F 44.6 °F 87% 30.24 in 7.0 mi East 10.4 mph - N/A   Overcast
3:55 PM 48.2 °F 44.6 °F 87% 30.23 in 9.0 mi East 9.2 mph - N/A   Overcast
4:35 PM 48.2 °F 44.6 °F 87% 30.23 in 9.0 mi East 10.4 mph - N/A   Overcast
4:55 PM 48.2 °F 46.4 °F 93% 30.21 in 10.0 mi East 12.7 mph - 0.01 in   Overcast
5:15 PM 48.2 °F 44.6 °F 87% 30.20 in 10.0 mi East 10.4 mph - N/A   Overcast
5:35 PM 48.2 °F 44.6 °F 87% 30.19 in 10.0 mi East 10.4 mph 21.9 mph N/A   Overcast
5:55 PM 48.2 °F 44.6 °F 87% 30.17 in 10.0 mi East 13.8 mph 21.9 mph N/A   Overcast
6:35 PM 48.2 °F 44.6 °F 87% 30.18 in 7.0 mi East 11.5 mph 19.6 mph 0.03 in   Overcast
6:55 PM 48.2 °F 46.4 °F 93% 30.16 in 5.0 mi East 15.0 mph 19.6 mph 0.05 in   Overcast
7:15 PM 48.2 °F 46.4 °F 93% 30.15 in 5.0 mi East 15.0 mph 20.7 mph 0.02 in   Overcast
7:35 PM 48.2 °F 46.4 °F 93% 30.14 in 8.0 mi East 13.8 mph 18.4 mph 0.06 in   Overcast
7:55 PM 48.2 °F 46.4 °F 93% 30.13 in 8.0 mi East 13.8 mph - 0.10 in   Overcast
8:15 PM 48.2 °F 46.4 °F 93% 30.11 in 8.0 mi East 16.1 mph 25.3 mph 0.06 in   Overcast
8:35 PM 50.0 °F 48.2 °F 94% 30.11 in 9.0 mi East 13.8 mph 23.0 mph 0.11 in   Overcast
8:55 PM 50.0 °F 48.2 °F 94% 30.09 in 10.0 mi East 18.4 mph 25.3 mph 0.18 in   Overcast
9:15 PM 50.0 °F 48.2 °F 94% 30.08 in 9.0 mi East 17.3 mph 21.9 mph 0.04 in   Overcast
9:35 PM 50.0 °F 48.2 °F 94% 30.06 in 9.0 mi East 16.1 mph 23.0 mph 0.11 in   Overcast
9:55 PM 50.0 °F 48.2 °F 94% 30.05 in 7.0 mi ESE 15.0 mph 21.9 mph 0.16 in   Overcast
10:15 PM 51.8 °F 48.2 °F 88% 30.02 in 9.0 mi East 17.3 mph 24.2 mph 0.10 in   Overcast
10:35 PM 51.8 °F 48.2 °F 88% 30.00 in 7.0 mi East 17.3 mph 24.2 mph 0.16 in   Overcast
10:55 PM 51.8 °F 50.0 °F 94% 29.98 in 7.0 mi East 15.0 mph 21.9 mph 0.20 in   Overcast
11:15 PM 51.8 °F 50.0 °F 94% 29.96 in 8.0 mi East 18.4 mph 23.0 mph 0.09 in   Overcast
11:35 PM 51.8 °F 50.0 °F 94% 29.95 in 7.0 mi East 15.0 mph 21.9 mph 0.20 in   Overcast
11:55 PM 51.8 °F 50.0 °F 94% 29.94 in 7.0 mi East 15.0 mph 20.7 mph 0.26 in   Overcast